Year,Month,Day,Hour,Minute,Value (Times are PST for temperature in C)
2010,07,22,00,00,13.90
2010,07,22,00,01,13.90
2010,07,22,00,02,13.90
2010,07,22,00,03,13.90
2010,07,22,00,04,13.90
2010,07,22,00,05,13.90
2010,07,22,00,06,13.90
2010,07,22,00,07,14.00
2010,07,22,00,08,14.00
2010,07,22,00,09,14.00
2010,07,22,00,10,14.00
2010,07,22,00,11,14.00
2010,07,22,00,12,14.00
2010,07,22,00,13,14.00
2010,07,22,00,14,14.00
2010,07,22,00,15,14.00
2010,07,22,00,16,14.00
2010,07,22,00,17,14.00
2010,07,22,00,18,14.00
2010,07,22,00,19,14.00
2010,07,22,00,20,14.00
2010,07,22,00,21,14.00
2010,07,22,00,22,14.00
2010,07,22,00,23,14.00
2010,07,22,00,24,13.90
2010,07,22,00,25,13.90
2010,07,22,00,26,13.90
2010,07,22,00,27,13.90
2010,07,22,00,28,13.90
2010,07,22,00,29,13.90
2010,07,22,00,30,13.90
2010,07,22,00,31,13.90
2010,07,22,00,32,14.00
2010,07,22,00,33,14.00
2010,07,22,00,34,14.00
2010,07,22,00,35,14.00
2010,07,22,00,36,14.00
2010,07,22,00,37,14.00
2010,07,22,00,38,14.00
2010,07,22,00,39,14.00
2010,07,22,00,40,14.00
2010,07,22,00,41,14.00
2010,07,22,00,42,14.00
2010,07,22,00,43,14.00
2010,07,22,00,44,14.00
2010,07,22,00,45,14.00
2010,07,22,00,46,14.00
2010,07,22,00,47,14.00
2010,07,22,00,48,14.10
2010,07,22,00,49,14.10
2010,07,22,00,50,14.10
2010,07,22,00,51,14.10
2010,07,22,00,52,14.00
2010,07,22,00,53,14.00
2010,07,22,00,54,14.00
2010,07,22,00,55,14.00
2010,07,22,00,56,14.00
2010,07,22,00,57,14.00
2010,07,22,00,58,14.00
2010,07,22,00,59,14.00
2010,07,22,01,00,14.10
2010,07,22,01,01,14.10
2010,07,22,01,02,14.10
2010,07,22,01,03,14.10
2010,07,22,01,04,14.10
2010,07,22,01,05,14.10
2010,07,22,01,06,14.10
2010,07,22,01,07,14.10
2010,07,22,01,08,14.10
2010,07,22,01,09,14.10
2010,07,22,01,10,14.10
2010,07,22,01,11,14.00
2010,07,22,01,12,14.00
2010,07,22,01,13,14.00
2010,07,22,01,14,14.00
2010,07,22,01,15,14.00
2010,07,22,01,16,14.00
2010,07,22,01,17,14.10
2010,07,22,01,18,14.10
2010,07,22,01,19,14.10
2010,07,22,01,20,14.10
2010,07,22,01,21,14.10
2010,07,22,01,22,14.10
2010,07,22,01,23,14.10
2010,07,22,01,24,14.10
2010,07,22,01,25,14.10
2010,07,22,01,26,14.10
2010,07,22,01,27,14.00
2010,07,22,01,28,14.00
2010,07,22,01,29,14.00
2010,07,22,01,30,14.00
2010,07,22,01,31,13.90
2010,07,22,01,32,13.90
2010,07,22,01,33,13.90
2010,07,22,01,34,13.90
2010,07,22,01,35,13.80
2010,07,22,01,36,13.80
2010,07,22,01,37,13.80
2010,07,22,01,38,13.80
2010,07,22,01,39,13.80
2010,07,22,01,40,13.70
2010,07,22,01,41,13.70
2010,07,22,01,42,13.70
2010,07,22,01,43,13.70
2010,07,22,01,44,13.70
2010,07,22,01,45,13.70
2010,07,22,01,46,13.70
2010,07,22,01,47,13.70
2010,07,22,01,48,13.70
2010,07,22,01,49,13.70
2010,07,22,01,50,13.60
2010,07,22,01,51,13.60
2010,07,22,01,52,13.60
2010,07,22,01,53,13.60
2010,07,22,01,54,13.60
2010,07,22,01,55,13.60
2010,07,22,01,56,13.60
2010,07,22,01,57,13.60
2010,07,22,01,58,13.60
2010,07,22,01,59,13.60
2010,07,22,02,00,13.60
2010,07,22,02,01,13.60
2010,07,22,02,02,13.60
2010,07,22,02,03,13.60
2010,07,22,02,04,13.60
2010,07,22,02,05,13.60
2010,07,22,02,06,13.60
2010,07,22,02,07,13.70
2010,07,22,02,08,13.70
2010,07,22,02,09,13.70
2010,07,22,02,10,13.70
2010,07,22,02,11,13.70
2010,07,22,02,12,13.70
2010,07,22,02,13,13.70
2010,07,22,02,14,13.70
2010,07,22,02,15,13.70
2010,07,22,02,16,13.70
2010,07,22,02,17,13.70
2010,07,22,02,18,13.70
2010,07,22,02,19,13.70
2010,07,22,02,20,13.70
2010,07,22,02,21,13.70
2010,07,22,02,22,13.70
2010,07,22,02,23,13.70
2010,07,22,02,24,13.70
2010,07,22,02,25,13.70
2010,07,22,02,26,13.70
2010,07,22,02,27,13.60
2010,07,22,02,28,13.60
2010,07,22,02,29,13.60
2010,07,22,02,30,13.60
2010,07,22,02,31,13.60
2010,07,22,02,32,13.60
2010,07,22,02,33,13.60
2010,07,22,02,34,13.60
2010,07,22,02,35,13.60
2010,07,22,02,36,13.60
2010,07,22,02,37,13.60
2010,07,22,02,38,13.60
2010,07,22,02,39,13.60
2010,07,22,02,40,13.60
2010,07,22,02,41,13.60
2010,07,22,02,42,13.50
2010,07,22,02,43,13.50
2010,07,22,02,44,13.50
2010,07,22,02,45,13.50
2010,07,22,02,46,13.50
2010,07,22,02,47,13.50
2010,07,22,02,48,13.40
2010,07,22,02,49,13.40
2010,07,22,02,50,13.40
2010,07,22,02,51,13.40
2010,07,22,02,52,13.40
2010,07,22,02,53,13.40
2010,07,22,02,54,13.40
2010,07,22,02,55,13.40
2010,07,22,02,56,13.30
2010,07,22,02,57,13.30
2010,07,22,02,58,13.30
2010,07,22,02,59,13.30
2010,07,22,03,00,13.30
2010,07,22,03,01,13.30
2010,07,22,03,02,13.30
2010,07,22,03,03,13.30
2010,07,22,03,04,13.30
2010,07,22,03,05,13.20
2010,07,22,03,06,13.20
2010,07,22,03,07,13.20
2010,07,22,03,08,13.20
2010,07,22,03,09,13.20
2010,07,22,03,10,13.20
2010,07,22,03,11,13.10
2010,07,22,03,12,13.10
2010,07,22,03,13,13.10
2010,07,22,03,14,13.10
2010,07,22,03,15,13.10
2010,07,22,03,16,13.10
2010,07,22,03,17,13.10
2010,07,22,03,18,13.10
2010,07,22,03,19,13.10
2010,07,22,03,20,13.00
2010,07,22,03,21,13.00
2010,07,22,03,22,13.00
2010,07,22,03,23,13.00
2010,07,22,03,24,13.00
2010,07,22,03,25,13.00
2010,07,22,03,26,13.00
2010,07,22,03,27,13.00
2010,07,22,03,28,13.00
2010,07,22,03,29,12.90
2010,07,22,03,30,12.90
2010,07,22,03,31,12.90
2010,07,22,03,32,12.90
2010,07,22,03,33,12.90
2010,07,22,03,34,13.00
2010,07,22,03,35,13.00
2010,07,22,03,36,13.00
2010,07,22,03,37,13.00
2010,07,22,03,38,13.00
2010,07,22,03,39,13.00
2010,07,22,03,40,13.00
2010,07,22,03,41,13.00
2010,07,22,03,42,13.00
2010,07,22,03,43,13.00
2010,07,22,03,44,13.00
2010,07,22,03,45,13.00
2010,07,22,03,46,13.00
2010,07,22,03,47,13.10
2010,07,22,03,48,13.10
2010,07,22,03,49,13.10
2010,07,22,03,50,13.20
2010,07,22,03,51,13.20
2010,07,22,03,52,13.20
2010,07,22,03,53,13.20
2010,07,22,03,54,13.20
2010,07,22,03,55,13.30
2010,07,22,03,56,13.30
2010,07,22,03,57,13.30
2010,07,22,03,58,13.30
2010,07,22,03,59,13.30
2010,07,22,04,00,13.30
2010,07,22,04,01,13.30
2010,07,22,04,02,13.30
2010,07,22,04,03,13.30
2010,07,22,04,04,13.30
2010,07,22,04,05,13.30
2010,07,22,04,06,13.30
2010,07,22,04,07,13.40
2010,07,22,04,08,13.40
2010,07,22,04,09,13.40
2010,07,22,04,10,13.40
2010,07,22,04,11,13.40
2010,07,22,04,12,13.40
2010,07,22,04,13,13.40
2010,07,22,04,14,13.50
2010,07,22,04,15,13.50
2010,07,22,04,16,13.50
2010,07,22,04,17,13.50
2010,07,22,04,18,13.50
2010,07,22,04,19,13.50
2010,07,22,04,20,13.60
2010,07,22,04,21,13.60
2010,07,22,04,22,13.60
2010,07,22,04,23,13.60
2010,07,22,04,24,13.60
2010,07,22,04,25,13.70
2010,07,22,04,26,13.70
2010,07,22,04,27,13.70
2010,07,22,04,28,13.70
2010,07,22,04,29,13.70
2010,07,22,04,30,13.70
2010,07,22,04,31,13.70
2010,07,22,04,32,13.70
2010,07,22,04,33,13.80
2010,07,22,04,34,13.80
2010,07,22,04,35,13.80
2010,07,22,04,36,13.80
2010,07,22,04,37,13.90
2010,07,22,04,38,13.90
2010,07,22,04,39,13.90
2010,07,22,04,40,14.00
2010,07,22,04,41,14.00
2010,07,22,04,42,14.00
2010,07,22,04,43,14.00
2010,07,22,04,44,14.10
2010,07,22,04,45,14.10
2010,07,22,04,46,14.10
2010,07,22,04,47,14.20
2010,07,22,04,48,14.20
2010,07,22,04,49,14.20
2010,07,22,04,50,14.20
2010,07,22,04,51,14.20
2010,07,22,04,52,14.20
2010,07,22,04,53,14.20
2010,07,22,04,54,14.20
2010,07,22,04,55,14.30
2010,07,22,04,56,14.30
2010,07,22,04,57,14.30
2010,07,22,04,58,14.30
2010,07,22,04,59,14.30
2010,07,22,05,00,14.30
2010,07,22,05,01,14.30
2010,07,22,05,02,14.30
2010,07,22,05,03,14.30
2010,07,22,05,04,14.30
2010,07,22,05,05,14.30
2010,07,22,05,06,14.30
2010,07,22,05,07,14.30
2010,07,22,05,08,14.30
2010,07,22,05,09,14.30
2010,07,22,05,10,14.30
2010,07,22,05,11,14.30
2010,07,22,05,12,14.30
2010,07,22,05,13,14.20
2010,07,22,05,14,14.20
2010,07,22,05,15,14.20
2010,07,22,05,16,14.20
2010,07,22,05,17,14.20
2010,07,22,05,18,14.20
2010,07,22,05,19,14.10
2010,07,22,05,20,14.10
2010,07,22,05,21,14.10
2010,07,22,05,22,14.10
2010,07,22,05,23,14.00
2010,07,22,05,24,14.00
2010,07,22,05,25,14.00
2010,07,22,05,26,14.00
2010,07,22,05,27,14.00
2010,07,22,05,28,14.00
2010,07,22,05,29,14.00
2010,07,22,05,30,14.00
2010,07,22,05,31,14.00
2010,07,22,05,32,13.90
2010,07,22,05,33,13.90
2010,07,22,05,34,13.90
2010,07,22,05,35,13.90
2010,07,22,05,36,13.90
2010,07,22,05,37,13.90
2010,07,22,05,38,13.90
2010,07,22,05,39,13.90
2010,07,22,05,40,13.80
2010,07,22,05,41,13.80
2010,07,22,05,42,13.80
2010,07,22,05,43,13.80
2010,07,22,05,44,13.80
2010,07,22,05,45,13.80
2010,07,22,05,46,13.80
2010,07,22,05,47,13.70
2010,07,22,05,48,13.70
2010,07,22,05,49,13.70
2010,07,22,05,50,13.70
2010,07,22,05,51,13.70
2010,07,22,05,52,13.70
2010,07,22,05,53,13.70
2010,07,22,05,54,13.70
2010,07,22,05,55,13.70
2010,07,22,05,56,13.70
2010,07,22,05,57,13.70
2010,07,22,05,58,13.70
2010,07,22,05,59,13.70
2010,07,22,06,00,13.70
2010,07,22,06,01,13.80
2010,07,22,06,02,13.80
2010,07,22,06,03,13.90
2010,07,22,06,04,13.90
2010,07,22,06,05,13.90
2010,07,22,06,06,14.00
2010,07,22,06,07,14.00
2010,07,22,06,08,14.00
2010,07,22,06,09,14.00
2010,07,22,06,10,14.10
2010,07,22,06,11,14.10
2010,07,22,06,12,14.10
2010,07,22,06,13,14.10
2010,07,22,06,14,14.10
2010,07,22,06,15,14.10
2010,07,22,06,16,14.10
2010,07,22,06,17,14.20
2010,07,22,06,18,14.20
2010,07,22,06,19,14.20
2010,07,22,06,20,14.20
2010,07,22,06,21,14.20
2010,07,22,06,22,14.20
2010,07,22,06,23,14.20
2010,07,22,06,24,14.20
2010,07,22,06,25,14.20
2010,07,22,06,26,14.20
2010,07,22,06,27,14.20
2010,07,22,06,28,14.20
2010,07,22,06,29,14.20
2010,07,22,06,30,14.20
2010,07,22,06,31,14.20
2010,07,22,06,32,14.20
2010,07,22,06,33,14.20
2010,07,22,06,34,14.20
2010,07,22,06,35,14.20
2010,07,22,06,36,14.30
2010,07,22,06,37,14.30
2010,07,22,06,38,14.30
2010,07,22,06,39,14.30
2010,07,22,06,40,14.30
2010,07,22,06,41,14.30
2010,07,22,06,42,14.30
2010,07,22,06,43,14.30
2010,07,22,06,44,14.30
2010,07,22,06,45,14.30
2010,07,22,06,46,14.30
2010,07,22,06,47,14.40
2010,07,22,06,48,14.40
2010,07,22,06,49,14.40
2010,07,22,06,50,14.40
2010,07,22,06,51,14.40
2010,07,22,06,52,14.40
2010,07,22,06,53,14.50
2010,07,22,06,54,14.50
2010,07,22,06,55,14.50
2010,07,22,06,56,14.50
2010,07,22,06,57,14.60
2010,07,22,06,58,14.60
2010,07,22,06,59,14.60
2010,07,22,07,00,14.60
2010,07,22,07,01,14.70
2010,07,22,07,02,14.70
2010,07,22,07,03,14.70
2010,07,22,07,04,14.70
2010,07,22,07,05,14.70
2010,07,22,07,06,14.80
2010,07,22,07,07,14.80
2010,07,22,07,08,14.80
2010,07,22,07,09,14.80
2010,07,22,07,10,14.80
2010,07,22,07,11,14.80
2010,07,22,07,12,14.80
2010,07,22,07,13,14.80
2010,07,22,07,14,14.90
2010,07,22,07,15,14.90
2010,07,22,07,16,14.90
2010,07,22,07,17,15.00
2010,07,22,07,18,15.00
2010,07,22,07,19,15.00
2010,07,22,07,20,15.00
2010,07,22,07,21,15.10
2010,07,22,07,22,15.10
2010,07,22,07,23,15.10
2010,07,22,07,24,15.10
2010,07,22,07,25,15.10
2010,07,22,07,26,15.20
2010,07,22,07,27,15.20
2010,07,22,07,28,15.20
2010,07,22,07,29,15.20
2010,07,22,07,30,15.20
2010,07,22,07,31,15.20
2010,07,22,07,32,15.20
2010,07,22,07,33,15.20
2010,07,22,07,34,15.30
2010,07,22,07,35,15.30
2010,07,22,07,36,15.30
2010,07,22,07,37,15.30
2010,07,22,07,38,15.30
2010,07,22,07,39,15.30
2010,07,22,07,40,15.30
2010,07,22,07,41,15.30
2010,07,22,07,42,15.30
2010,07,22,07,43,15.30
2010,07,22,07,44,15.30
2010,07,22,07,45,15.30
2010,07,22,07,46,15.30
2010,07,22,07,47,15.40
2010,07,22,07,48,15.40
2010,07,22,07,49,15.40
2010,07,22,07,50,15.50
2010,07,22,07,51,15.60
2010,07,22,07,52,15.60
2010,07,22,07,53,15.60
2010,07,22,07,54,15.70
2010,07,22,07,55,15.70
2010,07,22,07,56,15.80
2010,07,22,07,57,15.80
2010,07,22,07,58,15.80
2010,07,22,07,59,15.80
2010,07,22,08,00,15.80
2010,07,22,08,01,15.80
2010,07,22,08,02,15.90
2010,07,22,08,03,15.90
2010,07,22,08,04,16.00
2010,07,22,08,05,16.10
2010,07,22,08,06,16.10
2010,07,22,08,07,16.10
2010,07,22,08,08,16.10
2010,07,22,08,09,16.10
2010,07,22,08,10,16.20
2010,07,22,08,11,16.20
2010,07,22,08,12,16.30
2010,07,22,08,13,16.30
2010,07,22,08,14,16.30
2010,07,22,08,15,16.30
2010,07,22,08,16,16.40
2010,07,22,08,17,16.40
2010,07,22,08,18,16.40
2010,07,22,08,19,16.50
2010,07,22,08,20,16.60
2010,07,22,08,21,16.60
2010,07,22,08,22,16.60
2010,07,22,08,23,16.60
2010,07,22,08,24,16.50
2010,07,22,08,25,16.40
2010,07,22,08,26,16.50
2010,07,22,08,27,16.60
2010,07,22,08,28,16.60
2010,07,22,08,29,16.60
2010,07,22,08,30,16.60
2010,07,22,08,31,16.50
2010,07,22,08,32,16.60
2010,07,22,08,33,16.60
2010,07,22,08,34,16.60
2010,07,22,08,35,16.60
2010,07,22,08,36,16.60
2010,07,22,08,37,16.60
2010,07,22,08,38,16.60
2010,07,22,08,39,16.50
2010,07,22,08,40,16.40
2010,07,22,08,41,16.40
2010,07,22,08,42,16.50
2010,07,22,08,43,16.60
2010,07,22,08,44,16.60
2010,07,22,08,45,16.60
2010,07,22,08,46,16.60
2010,07,22,08,47,16.60
2010,07,22,08,48,16.60
2010,07,22,08,49,16.70
2010,07,22,08,50,16.80
2010,07,22,08,51,16.80
2010,07,22,08,52,16.90
2010,07,22,08,53,16.90
2010,07,22,08,54,17.00
2010,07,22,08,55,16.90
2010,07,22,08,56,16.90
2010,07,22,08,57,16.80
2010,07,22,08,58,16.80
2010,07,22,08,59,16.80
2010,07,22,09,00,16.80
2010,07,22,09,01,16.80
2010,07,22,09,02,16.80
2010,07,22,09,03,16.80
2010,07,22,09,04,16.90
2010,07,22,09,05,16.90
2010,07,22,09,06,16.90
2010,07,22,09,07,17.00
2010,07,22,09,08,16.90
2010,07,22,09,09,16.90
2010,07,22,09,10,16.80
2010,07,22,09,11,16.60
2010,07,22,09,12,16.40
2010,07,22,09,13,16.40
2010,07,22,09,14,16.40
2010,07,22,09,15,16.30
2010,07,22,09,16,16.30
2010,07,22,09,17,16.30
2010,07,22,09,18,16.20
2010,07,22,09,19,16.20
2010,07,22,09,20,16.20
2010,07,22,09,21,16.00
2010,07,22,09,22,15.90
2010,07,22,09,23,15.80
2010,07,22,09,24,15.80
2010,07,22,09,25,15.80
2010,07,22,09,26,15.80
2010,07,22,09,27,15.80
2010,07,22,09,28,15.80
2010,07,22,09,29,15.90
2010,07,22,09,30,15.90
2010,07,22,09,31,16.10
2010,07,22,09,32,16.10
2010,07,22,09,33,16.10
2010,07,22,09,34,16.10
2010,07,22,09,35,16.10
2010,07,22,09,36,15.90
2010,07,22,09,37,15.90
2010,07,22,09,38,15.90
2010,07,22,09,39,15.90
2010,07,22,09,40,15.80
2010,07,22,09,41,15.80
2010,07,22,09,42,15.80
2010,07,22,09,43,15.80
2010,07,22,09,44,15.80
2010,07,22,09,45,15.80
2010,07,22,09,46,15.80
2010,07,22,09,47,15.80
2010,07,22,09,48,15.90
2010,07,22,09,49,15.80
2010,07,22,09,50,15.80
2010,07,22,09,51,15.80
2010,07,22,09,52,15.80
2010,07,22,09,53,15.80
2010,07,22,09,54,15.80
2010,07,22,09,55,16.00
2010,07,22,09,56,16.20
2010,07,22,09,57,16.20
2010,07,22,09,58,16.30
2010,07,22,09,59,16.30
2010,07,22,10,00,16.30
2010,07,22,10,01,16.30
2010,07,22,10,02,16.30
2010,07,22,10,03,16.40
2010,07,22,10,04,16.30
2010,07,22,10,05,16.30
2010,07,22,10,06,16.30
2010,07,22,10,07,16.30
2010,07,22,10,08,16.30
2010,07,22,10,09,16.30
2010,07,22,10,10,16.40
2010,07,22,10,11,16.40
2010,07,22,10,12,16.40
2010,07,22,10,13,16.40
2010,07,22,10,14,16.40
2010,07,22,10,15,16.40
2010,07,22,10,16,16.40
2010,07,22,10,17,16.50
2010,07,22,10,18,16.60
2010,07,22,10,19,16.70
2010,07,22,10,20,16.70
2010,07,22,10,21,16.70
2010,07,22,10,22,16.60
2010,07,22,10,23,16.60
2010,07,22,10,24,16.70
2010,07,22,10,25,16.70
2010,07,22,10,26,16.80
2010,07,22,10,27,16.80
2010,07,22,10,28,16.90
2010,07,22,10,29,17.00
2010,07,22,10,30,17.10
2010,07,22,10,31,17.30
2010,07,22,10,32,17.40
2010,07,22,10,33,17.50
2010,07,22,10,34,17.50
2010,07,22,10,35,17.60
2010,07,22,10,36,17.60
2010,07,22,10,37,17.70
2010,07,22,10,38,17.80
2010,07,22,10,39,17.80
2010,07,22,10,40,17.70
2010,07,22,10,41,17.60
2010,07,22,10,42,17.60
2010,07,22,10,43,17.50
2010,07,22,10,44,17.40
2010,07,22,10,45,17.20
2010,07,22,10,46,17.10
2010,07,22,10,47,17.00
2010,07,22,10,48,17.00
2010,07,22,10,49,17.00
2010,07,22,10,50,16.90
2010,07,22,10,51,16.90
2010,07,22,10,52,17.00
2010,07,22,10,53,17.00
2010,07,22,10,54,17.10
2010,07,22,10,55,17.10
2010,07,22,10,56,17.20
2010,07,22,10,57,17.20
2010,07,22,10,58,17.20
2010,07,22,10,59,17.20
2010,07,22,11,00,17.20
2010,07,22,11,01,17.30
2010,07,22,11,02,17.30
2010,07,22,11,03,17.20
2010,07,22,11,04,17.20
2010,07,22,11,05,17.20
2010,07,22,11,06,17.20
2010,07,22,11,07,17.30
2010,07,22,11,08,17.30
2010,07,22,11,09,17.40
2010,07,22,11,10,17.60
2010,07,22,11,11,17.70
2010,07,22,11,12,17.80
2010,07,22,11,13,17.90
2010,07,22,11,14,17.90
2010,07,22,11,15,18.00
2010,07,22,11,16,18.10
2010,07,22,11,17,18.20
2010,07,22,11,18,18.30
2010,07,22,11,19,18.40
2010,07,22,11,20,18.40
2010,07,22,11,21,18.40
2010,07,22,11,22,18.40
2010,07,22,11,23,18.30
2010,07,22,11,24,18.40
2010,07,22,11,25,18.50
2010,07,22,11,26,18.40
2010,07,22,11,27,18.40
2010,07,22,11,28,18.30
2010,07,22,11,29,18.30
2010,07,22,11,30,18.20
2010,07,22,11,31,18.10
2010,07,22,11,32,18.10
2010,07,22,11,33,18.10
2010,07,22,11,34,18.10
2010,07,22,11,35,18.00
2010,07,22,11,36,17.90
2010,07,22,11,37,17.90
2010,07,22,11,38,17.90
2010,07,22,11,39,17.90
2010,07,22,11,40,17.90
2010,07,22,11,41,18.00
2010,07,22,11,42,18.10
2010,07,22,11,43,18.10
2010,07,22,11,44,18.20
2010,07,22,11,45,18.30
2010,07,22,11,46,18.50
2010,07,22,11,47,18.60
2010,07,22,11,48,18.70
2010,07,22,11,49,18.80
2010,07,22,11,50,18.80
2010,07,22,11,51,18.80
2010,07,22,11,52,18.80
2010,07,22,11,53,18.60
2010,07,22,11,54,18.50
2010,07,22,11,55,18.30
2010,07,22,11,56,18.00
2010,07,22,11,57,17.80
2010,07,22,11,58,17.70
2010,07,22,11,59,17.60
2010,07,22,12,00,17.60
2010,07,22,12,01,17.60
2010,07,22,12,02,17.60
2010,07,22,12,03,17.60
2010,07,22,12,04,17.60
2010,07,22,12,05,17.60
2010,07,22,12,06,17.70
2010,07,22,12,07,17.80
2010,07,22,12,08,17.70
2010,07,22,12,09,17.70
2010,07,22,12,10,17.50
2010,07,22,12,11,17.30
2010,07,22,12,12,17.30
2010,07,22,12,13,17.30
2010,07,22,12,14,17.20
2010,07,22,12,15,17.10
2010,07,22,12,16,17.00
2010,07,22,12,17,17.10
2010,07,22,12,18,17.10
2010,07,22,12,19,17.10
2010,07,22,12,20,17.10
2010,07,22,12,21,17.10
2010,07,22,12,22,17.20
2010,07,22,12,23,17.10
2010,07,22,12,24,17.00
2010,07,22,12,25,17.00
2010,07,22,12,26,17.10
2010,07,22,12,27,17.30
2010,07,22,12,28,17.40
2010,07,22,12,29,17.50
2010,07,22,12,30,17.50
2010,07,22,12,31,17.50
2010,07,22,12,32,17.50
2010,07,22,12,33,17.50
2010,07,22,12,34,17.50
2010,07,22,12,35,17.50
2010,07,22,12,36,17.50
2010,07,22,12,37,17.40
2010,07,22,12,38,17.20
2010,07,22,12,39,17.00
2010,07,22,12,40,16.80
2010,07,22,12,41,16.50
2010,07,22,12,42,16.30
2010,07,22,12,43,16.20
2010,07,22,12,44,16.30
2010,07,22,12,45,16.30
2010,07,22,12,46,16.40
2010,07,22,12,47,16.30
2010,07,22,12,48,16.20
2010,07,22,12,49,16.10
2010,07,22,12,50,16.10
2010,07,22,12,51,16.20
2010,07,22,12,52,16.20
2010,07,22,12,53,16.20
2010,07,22,12,54,16.20
2010,07,22,12,55,16.20
2010,07,22,12,56,16.10
2010,07,22,12,57,16.00
2010,07,22,12,58,15.90
2010,07,22,12,59,16.00
2010,07,22,13,00,16.10
2010,07,22,13,01,16.10
2010,07,22,13,02,16.10
2010,07,22,13,03,16.20
2010,07,22,13,04,16.30
2010,07,22,13,05,16.30
2010,07,22,13,06,16.40
2010,07,22,13,07,16.50
2010,07,22,13,08,16.60
2010,07,22,13,09,16.50
2010,07,22,13,10,16.40
2010,07,22,13,11,16.30
2010,07,22,13,12,16.30
2010,07,22,13,13,16.30
2010,07,22,13,14,16.30
2010,07,22,13,15,16.20
2010,07,22,13,16,16.10
2010,07,22,13,17,16.00
2010,07,22,13,18,15.90
2010,07,22,13,19,15.80
2010,07,22,13,20,15.90
2010,07,22,13,21,15.90
2010,07,22,13,22,15.80
2010,07,22,13,23,15.80
2010,07,22,13,24,15.70
2010,07,22,13,25,15.70
2010,07,22,13,26,15.60
2010,07,22,13,27,15.60
2010,07,22,13,28,15.50
2010,07,22,13,29,15.30
2010,07,22,13,30,15.30
2010,07,22,13,31,15.30
2010,07,22,13,32,15.30
2010,07,22,13,33,15.30
2010,07,22,13,34,15.20
2010,07,22,13,35,15.20
2010,07,22,13,36,15.20
2010,07,22,13,37,15.20
2010,07,22,13,38,15.20
2010,07,22,13,39,15.10
2010,07,22,13,40,15.10
2010,07,22,13,41,15.10
2010,07,22,13,42,15.00
2010,07,22,13,43,14.90
2010,07,22,13,44,14.90
2010,07,22,13,45,15.00
2010,07,22,13,46,15.00
2010,07,22,13,47,15.00
2010,07,22,13,48,14.90
2010,07,22,13,49,15.00
2010,07,22,13,50,15.00
2010,07,22,13,51,15.00
2010,07,22,13,52,15.00
2010,07,22,13,53,15.00
2010,07,22,13,54,15.10
2010,07,22,13,55,15.10
2010,07,22,13,56,15.10
2010,07,22,13,57,15.10
2010,07,22,13,58,15.00
2010,07,22,13,59,14.80
2010,07,22,14,00,14.80
2010,07,22,14,01,14.80
2010,07,22,14,02,14.80
2010,07,22,14,03,14.70
2010,07,22,14,04,14.70
2010,07,22,14,05,14.70
2010,07,22,14,06,14.90
2010,07,22,14,07,15.00
2010,07,22,14,08,15.10
2010,07,22,14,09,15.20
2010,07,22,14,10,15.20
2010,07,22,14,11,15.10
2010,07,22,14,12,15.00
2010,07,22,14,13,14.90
2010,07,22,14,14,14.80
2010,07,22,14,15,14.90
2010,07,22,14,16,14.90
2010,07,22,14,17,14.80
2010,07,22,14,18,14.80
2010,07,22,14,19,14.70
2010,07,22,14,20,14.70
2010,07,22,14,21,14.70
2010,07,22,14,22,14.80
2010,07,22,14,23,14.80
2010,07,22,14,24,14.90
2010,07,22,14,25,14.90
2010,07,22,14,26,14.80
2010,07,22,14,27,14.70
2010,07,22,14,28,14.80
2010,07,22,14,29,14.70
2010,07,22,14,30,14.60
2010,07,22,14,31,14.70
2010,07,22,14,32,14.70
2010,07,22,14,33,14.70
2010,07,22,14,34,14.80
2010,07,22,14,35,14.80
2010,07,22,14,36,14.80
2010,07,22,14,37,14.90
2010,07,22,14,38,15.00
2010,07,22,14,39,15.10
2010,07,22,14,40,15.30
2010,07,22,14,41,15.40
2010,07,22,14,42,15.50
2010,07,22,14,43,15.50
2010,07,22,14,44,15.60
2010,07,22,14,45,15.60
2010,07,22,14,46,15.60
2010,07,22,14,47,15.50
2010,07,22,14,48,15.40
2010,07,22,14,49,15.20
2010,07,22,14,50,15.20
2010,07,22,14,51,15.20
2010,07,22,14,52,15.30
2010,07,22,14,53,15.40
2010,07,22,14,54,15.60
2010,07,22,14,55,15.50
2010,07,22,14,56,15.60
2010,07,22,14,57,15.60
2010,07,22,14,58,15.80
2010,07,22,14,59,16.00
2010,07,22,15,00,16.10
2010,07,22,15,01,16.10
2010,07,22,15,02,16.20
2010,07,22,15,03,16.20
2010,07,22,15,04,16.30
2010,07,22,15,05,16.40
2010,07,22,15,06,16.50
2010,07,22,15,07,16.70
2010,07,22,15,08,16.70
2010,07,22,15,09,16.70
2010,07,22,15,10,16.70
2010,07,22,15,11,16.70
2010,07,22,15,12,16.70
2010,07,22,15,13,16.80
2010,07,22,15,14,16.90
2010,07,22,15,15,17.00
2010,07,22,15,16,17.10
2010,07,22,15,17,17.30
2010,07,22,15,18,17.40
2010,07,22,15,19,17.60
2010,07,22,15,20,17.70
2010,07,22,15,21,17.80
2010,07,22,15,22,17.80
2010,07,22,15,23,17.90
2010,07,22,15,24,18.00
2010,07,22,15,25,18.00
2010,07,22,15,26,18.10
2010,07,22,15,27,18.30
2010,07,22,15,28,18.40
2010,07,22,15,29,18.60
2010,07,22,15,30,18.70
2010,07,22,15,31,18.80
2010,07,22,15,32,18.80
2010,07,22,15,33,18.90
2010,07,22,15,34,18.90
2010,07,22,15,35,18.90
2010,07,22,15,36,19.00
2010,07,22,15,37,19.10
2010,07,22,15,38,19.10
2010,07,22,15,39,19.10
2010,07,22,15,40,19.10
2010,07,22,15,41,19.20
2010,07,22,15,42,19.30
2010,07,22,15,43,19.40
2010,07,22,15,44,19.40
2010,07,22,15,45,19.50
2010,07,22,15,46,19.60
2010,07,22,15,47,19.70
2010,07,22,15,48,19.80
2010,07,22,15,49,19.80
2010,07,22,15,50,19.80
2010,07,22,15,51,19.90
2010,07,22,15,52,19.90
2010,07,22,15,53,20.00
2010,07,22,15,54,20.10
2010,07,22,15,55,20.20
2010,07,22,15,56,20.30
2010,07,22,15,57,20.40
2010,07,22,15,58,20.50
2010,07,22,15,59,20.50
2010,07,22,16,00,20.60
2010,07,22,16,01,20.80
2010,07,22,16,02,20.80
2010,07,22,16,03,20.90
2010,07,22,16,04,21.00
2010,07,22,16,05,21.10
2010,07,22,16,06,21.20
2010,07,22,16,07,21.30
2010,07,22,16,08,21.50
2010,07,22,16,09,21.60
2010,07,22,16,10,21.70
2010,07,22,16,11,21.70
2010,07,22,16,12,21.70
2010,07,22,16,13,21.60
2010,07,22,16,14,21.60
2010,07,22,16,15,21.60
2010,07,22,16,16,21.50
2010,07,22,16,17,21.40
2010,07,22,16,18,21.30
2010,07,22,16,19,21.30
2010,07,22,16,20,21.30
2010,07,22,16,21,21.30
2010,07,22,16,22,21.20
2010,07,22,16,23,21.10
2010,07,22,16,24,21.00
2010,07,22,16,25,21.00
2010,07,22,16,26,21.00
2010,07,22,16,27,21.10
2010,07,22,16,28,21.10
2010,07,22,16,29,21.10
2010,07,22,16,30,21.20
2010,07,22,16,31,21.30
2010,07,22,16,32,21.30
2010,07,22,16,33,21.30
2010,07,22,16,34,21.20
2010,07,22,16,35,21.10
2010,07,22,16,36,21.10
2010,07,22,16,37,21.10
2010,07,22,16,38,21.10
2010,07,22,16,39,21.00
2010,07,22,16,40,21.00
2010,07,22,16,41,21.00
2010,07,22,16,42,21.00
2010,07,22,16,43,21.00
2010,07,22,16,44,21.00
2010,07,22,16,45,21.00
2010,07,22,16,46,21.10
2010,07,22,16,47,21.30
2010,07,22,16,48,21.20
2010,07,22,16,49,21.30
2010,07,22,16,50,21.30
2010,07,22,16,51,21.30
2010,07,22,16,52,21.30
2010,07,22,16,53,21.30
2010,07,22,16,54,21.30
2010,07,22,16,55,21.30
2010,07,22,16,56,21.30
2010,07,22,16,57,21.30
2010,07,22,16,58,21.30
2010,07,22,16,59,21.30
2010,07,22,17,00,21.30
2010,07,22,17,01,21.30
2010,07,22,17,02,21.30
2010,07,22,17,03,21.30
2010,07,22,17,04,21.30
2010,07,22,17,05,21.30
2010,07,22,17,06,21.50
2010,07,22,17,07,21.60
2010,07,22,17,08,21.60
2010,07,22,17,09,21.60
2010,07,22,17,10,21.60
2010,07,22,17,11,21.60
2010,07,22,17,12,21.60
2010,07,22,17,13,21.60
2010,07,22,17,14,21.60
2010,07,22,17,15,21.70
2010,07,22,17,16,21.70
2010,07,22,17,17,21.80
2010,07,22,17,18,21.80
2010,07,22,17,19,21.80